This demonstration page uses our WeatherBlox Daily Observations layout. Learn more.

Left ArrowRight Arrow

39.08367, -84.50855

Hourly Observations for April 28, 2019

Temp ( °F °C ) Dew Point ( °F °C ) Humidity (%) Winds ( mph kmh ) Pressure ( in mb ) Visibility ( mi km ) Precip ( " mm )
12:53 am 00:53 Mostly Cloudy 53 11.7 46 7.8 77 77 S 8 13 29.69 1005 10 16.0934 0 0
1:53 am 01:53 Cloudy with Light Rain 53 11.7 47 8.3 80 80 SSW 8 13 29.68 1005 5 8.0467 0.03 0.762
2:53 am 02:53 Mostly Cloudy 52 11.1 49 9.4 89 89 WSW 5 7 29.68 1005 10 16.0934 0 0.0254
3:53 am 03:53 Cloudy 54 12.2 48 8.9 80 80 Calm 29.72 1006 10 16.0934 0 0
4:53 am 04:53 Cloudy 53 11.7 49 9.4 86 86 Calm 29.76 1008 10 16.0934 0 0
5:53 am 05:53 Cloudy 53 11.7 48 8.9 83 83 WNW 7 11 29.81 1010 10 16.0934 0 0
6:05 am 06:05 Cloudy 53 11.7 48 8.9 83 83 NW 3 6 29.83 1010 10 16.0934 0 0
6:53 am 06:53 Cloudy 52 11.1 48 8.9 86 86 NW 9 15 29.88 1012 10 16.0934 0 0
7:11 am 07:11 Cloudy 51 10.6 47 8.3 86 86 N 13 20 29.91 1013 10 16.0934 0 0
7:53 am 07:53 Cloudy 48 8.9 44 6.7 86 86 N 14 22 29.96 1015 10 16.0934 0 0
8:53 am 08:53 Cloudy 46 7.8 42 5.6 86 86 NNW 13 20 30.02 1017 10 16.0934 0 0
9:53 am 09:53 Cloudy 46 7.8 40 4.4 79 79 N 12 19 30.09 1019 10 16.0934 0 0
10:34 am 10:34 Cloudy 47 8.3 40 4.4 77 77 N 12 19 30.11 1020 10 16.0934 0 0
10:53 am 10:53 Cloudy 47 8.3 40 4.4 77 77 N 9 15 30.12 1020 10 16.0934 0 0
11:53 am 11:53 Cloudy 49 9.4 41 5 74 74 NNE 10 17 30.14 1021 10 16.0934 0 0
12:53 pm 12:53 Cloudy 50 10 40 4.4 68 68 NNW 12 19 30.16 1021 10 16.0934 0 0
1:53 pm 13:53 Cloudy 51 10.6 41 5 69 69 N 10 17 30.17 1022 10 16.0934 0 0
2:50 pm 14:50 Cloudy 52 11 39 4 62 62 NE 8 13 30.19 1022 10 16.0934 0 0
2:53 pm 14:53 Cloudy 52 11.1 40 4.4 64 64 NE 8 13 30.19 1022 10 16.0934 0 0
3:53 pm 15:53 Cloudy 54 12.2 40 4.4 59 59 E 5 7 30.19 1022 10 16.0934 0 0
4:53 pm 16:53 Cloudy 55 12.8 40 4.4 57 57 VRB 7 11 30.19 1022 10 16.0934 0 0
5:53 pm 17:53 Cloudy 54 12.2 41 5 62 62 ENE 10 17 30.2 1023 10 16.0934 0 0
6:53 pm 18:53 Cloudy 54 12.2 40 4.4 59 59 ENE 8 13 30.2 1023 10 16.0934 0 0
7:53 pm 19:53 Mostly Cloudy 53 11.7 39 3.9 59 59 E 6 9 30.2 1023 10 16.0934 0 0
8:53 pm 20:53 Mostly Clear 49 9.4 40 4.4 71 71 ESE 5 7 30.21 1023 10 16.0934 0 0
9:53 pm 21:53 Mostly Clear 46 7.8 41 5 83 83 Calm 30.23 1024 10 16.0934 0 0
10:53 pm 22:53 Clear 43 6.1 40 4.4 89 89 Calm 30.25 1024 10 16.0934 0 0
11:53 pm 23:53 Clear 42 5.6 41 5 96 96 NE 6 9 30.24 1024 10 16.0934 0 0

Powered by AerisWeather